Location: Christian Reformed Church
(43.0975°N, 93.8113°W)
Time: 16:02:11
(UTC+00:00)

Meteor 1-25 Rocket - Pass Details

Date: 18 March 2026
Orbit: 836 x 889 km, 81.2° (Epoch: 15 April)

Event Time Altitude Azimuth Distance (km) Brightness Sun altitude
Rises 00:51:01 0° 202° (SSW) 3,377 7.6 -5.7°
Reaches altitude 10° 00:53:28 10° 207° (SSW) 2,451 6.9 -6.2°
Maximum altitude 00:58:53 53° 284° (WNW) 1,038 5.2 -7.2°
Drops below altitude 10° 01:04:24 10° 1° (N) 2,496 6.7 -8.2°
Sets 01:06:56 0° 6° (N) 3,445 7.4 -8.6°
